Location: Ackerson Creek
(37.8210°N, 119.8757°W)
Time: 14:39:30
(UTC+00:00)

YAOGAN 11 - Pass Details

Date: 13 April 2024
Orbit: 606 x 659 km, 98.4° (Epoch: 23 May)

Event Time Altitude Azimuth Distance (km) Brightness Sun altitude
Rises 12:39:52 0° 166° (SSE) 2,931 7.5 -9.6°
Reaches altitude 10° 12:42:03 10° 167° (SSE) 2,034 6.7 -9.2°
Maximum altitude 12:46:30 87° 253° (WSW) 657 4.2 -8.4°
Drops below altitude 10° 12:51:02 10° 346° (NNW) 2,074 6.8 -7.5°
Sets 12:53:16 0° 347° (NNW) 2,994 7.6 -7.1°
